[[{"header":{"parameterUnit":"m.s-1","parameterCategory":2,"la1":30.2992,"la2":30.254,"lo1":-89.0895,"lo2":-89.0443,"dy":0.0025,"dx":0.0025,"nx":19,"ny":19,"refTime":"2026-05-21T03:00:00:Z","depth":"0","parameterNumber":2,"parameterNumberName":"U-component_of_CURRENTS"},"data":[0,0,0,0.2336,0.2338,0.2433,0.2434,0.2522,0.2523,0,0,0,0,0,0,0,0,0,0,0,0.23,0.2301,0.2335,0.2338,0.2433,0.2434,0.2522,0.2523,0,0,0,0,0,0,0,0,0,0,0,0.23,0.2301,0.2302,0.2338,0.2433,0.2434,0.2522,0.2458,0,0,0,0,0,0,0,0,0,0,0.2369,0.2335,0.2301,0.2302,0.2339,0.2433,0.2434,0.2455,0.2462,0.2469,0,0.2486,0,0.2507,0.2528,0.2528,0,0,0,0.2338,0.233,0.2363,0.2302,0.234,0.2433,0.239,0.2459,0.2467,0.2477,0.2487,0.2491,0.2508,0.2528,0.2529,0.2616,0.2617,0,0,0.2333,0.2311,0.2358,0.2367,0.2367,0.2387,0.2393,0.2464,0.2468,0.2487,0.2493,0.251,0.2529,0.2529,0.2616,0.2616,0,0,0,0.2317,0.2307,0.2339,0.2363,0.2384,0.239,0.2397,0.2464,0.2477,0.2494,0.2511,0.2529,0.253,0.2615,0.2616,0.2731,0,0,0,0.2314,0.2299,0.2337,0.2324,0.2383,0.2429,0.2395,0.2472,0.2481,0.251,0.2529,0.2531,0.2615,0.2616,0.2727,0.2806,0,0,0,0.2296,0.2296,0.231,0.2322,0.2365,0.2428,0.2445,0.2475,0.2491,0.2528,0.2531,0.2615,0.2616,0.2724,0.2799,0.2953,0,0,0,0.2267,0.2291,0.2309,0.2346,0.2364,0.243,0.2445,0.2498,0.2532,0.253,0.2615,0.2616,0.2723,0.2794,0.2946,0.2961,0.2991,0,0,0.2282,0.2292,0.2316,0.2335,0.2389,0.2417,0.2498,0.2548,0.2547,0.2588,0.2591,0.2729,0.2798,0.2951,0.3014,0.3043,0,0,0,0.2311,0.232,0.2343,0.2378,0.2431,0.2516,0.2546,0.2592,0.2671,0.2571,0.2715,0.2755,0.2849,0.2843,0.2866,0.2937,0.262,0.262,0.262,0.2277,0.2317,0.2363,0.242,0.2472,0.2578,0.268,0.2744,0.2708,0.2767,0.2838,0.3019,0.3009,0.3028,0.31,0.2809,0.281,0.281,0.281,0.2286,0.2322,0.2383,0.2446,0.2549,0.2627,0.2803,0.2851,0.304,0.2938,0.3024,0.2949,0.306,0.3127,0.2817,0.2816,0.2815,0.2815,0.2814,0.2241,0.2281,0.2327,0.2427,0.2557,0.2684,0.2886,0.3032,0.3149,0.3266,0.3283,0.328,0.3356,0.3313,0.3314,0.3315,0.3316,0.3316,0.3317,0.2207,0.2261,0.2318,0.242,0.2503,0.2664,0.2952,0.3125,0.3368,0.3439,0.3439,0.3425,0.3174,0.3174,0.3333,0.333,0.3328,0.3326,0.3325,0.223,0.2231,0.2287,0.2358,0.2518,0.2621,0.2901,0.3253,0.3485,0.3615,0.3731,0.3545,0.353,0.3508,0.3516,0.3755,0.3755,0.3755,0.3755,0.224,0.2245,0.2296,0.2359,0.2463,0.2609,0.2826,0.3172,0.3649,0.3874,0.3951,0.3817,0.3796,0.3789,0.3761,0.3769,0.4068,0.4068,0.4069,0.2306,0.2288,0.2299,0.2305,0.2423,0.255,0.2701,0.3025,0.3746,0.4089,0.4064,0.4051,0.3852,0.3813,0.3784,0.3739,0.3743,0,0]},{"header":{"parameterUnit":"m.s-1","parameterCategory":2,"la1":30.2992,"la2":30.254,"lo1":-89.0895,"lo2":-89.0443,"dy":0.0025,"dx":0.0025,"nx":19,"ny":19,"refTime":"2026-05-21T03:00:00:Z","depth":"0","parameterNumber":3,"parameterNumberName":"V-component_of_CURRENTS"},"data":[0,0,0,0.003,0.0029,-0.0044,-0.0044,-0.0174,-0.0175,0,0,0,0,0,0,0,0,0,0,0,0.0055,0.0054,0.003,0.0028,-0.0044,-0.0044,-0.0174,-0.0175,0,0,0,0,0,0,0,0,0,0,0,0.0055,0.0054,0.0054,0.0028,-0.0044,-0.0044,-0.0174,-0.0113,0,0,0,0,0,0,0,0,0,0,-0.004,-0.0002,0.0054,0.0054,0.0028,-0.0043,-0.0044,-0.011,-0.0117,-0.0148,0,-0.015,0,-0.0161,-0.0184,-0.0184,0,0,0,0.0015,0.0004,-0.0018,0.0054,0.0027,-0.0043,-0.0015,-0.0114,-0.0122,-0.0157,-0.0152,-0.0157,-0.0164,-0.0184,-0.0185,-0.0248,-0.0247,0,0,0.0019,0.0038,-0.0012,-0.0022,0.0019,-0.0012,-0.0017,-0.0118,-0.0122,-0.0153,-0.016,-0.0166,-0.0185,-0.0186,-0.0248,-0.0248,0,0,0,0.004,0.0041,0.0023,-0.0017,-0.0025,-0.0014,-0.0019,-0.0117,-0.0124,-0.0161,-0.0167,-0.0186,-0.0187,-0.0248,-0.0248,-0.0052,0,0,0,0.0041,0.0054,0.0025,0.0035,-0.0022,-0.0065,-0.0016,-0.0117,-0.0128,-0.0167,-0.0186,-0.0189,-0.0248,-0.0248,-0.0058,0.013,0,0,0,0.0056,0.0055,0.005,0.0036,0.0011,-0.0064,-0.0076,-0.0119,-0.0132,-0.0184,-0.0189,-0.0249,-0.0248,-0.0063,0.0117,0.0338,0,0,0,0.0073,0.0073,0.0051,0.0042,0.0012,-0.0024,-0.0076,-0.0116,-0.0156,-0.0187,-0.0248,-0.0248,-0.0065,0.0108,0.0328,0.0469,0.0528,0,0,0.0082,0.0074,0.0067,0.0046,0.0039,-0.0016,-0.0006,-0.0081,-0.0157,-0.0221,-0.0223,-0.0056,0.0116,0.0336,0.0502,0.0562,0,0,0,0.0076,0.0081,0.0069,0.0061,0.0025,0.007,-0.0032,-0.004,-0.0063,-0.0176,-0.0099,0.0004,0.0138,0.0197,0.0243,0.0031,-0.0245,-0.0245,-0.0245,0.013,0.011,0.0135,0.0121,0.0115,0.0107,0.0161,0.0133,-0.0011,0.0019,0.0127,0.039,0.0446,0.0485,0.026,0.0029,0.0029,0.003,0.003,0.0195,0.0254,0.0236,0.0269,0.0307,0.0337,0.0369,0.0341,0.0468,0.0271,0.0389,0.0354,0.0549,0.0289,0.0042,0.004,0.0039,0.0038,0.0037,0.0262,0.032,0.0324,0.0433,0.0566,0.0583,0.0839,0.081,0.0725,0.0843,0.0918,0.0915,0.0732,0.0889,0.0891,0.0893,0.0894,0.0896,0.0897,0.0408,0.0419,0.0565,0.0657,0.0804,0.1008,0.1172,0.1291,0.1343,0.1231,0.123,0.0797,0.0655,0.0672,0.0924,0.0919,0.0916,0.0913,0.0911,0.0665,0.0651,0.0846,0.0997,0.1303,0.1575,0.1682,0.1896,0.197,0.2021,0.14,0.1428,0.142,0.1378,0.1411,0.1842,0.1842,0.1842,0.1842,0.0892,0.0877,0.1178,0.1426,0.1704,0.1871,0.2257,0.2345,0.2079,0.1865,0.1657,0.1391,0.1363,0.1331,0.129,0.1311,0.1707,0.1706,0.1705,0.1197,0.12,0.1461,0.1575,0.189,0.2154,0.2468,0.2617,0.2137,0.1666,0.1346,0.1352,0.0907,0.088,0.0766,0.0727,0.0736,0,0]}],[{"header":{"parameterUnit":"m.s-1","parameterCategory":2,"la1":30.2992,"la2":30.254,"lo1":-89.0895,"lo2":-89.0443,"dy":0.0025,"dx":0.0025,"nx":19,"ny":19,"refTime":"2026-05-21T03:00:00:Z","depth":"2","parameterNumber":2,"parameterNumberName":"U-component_of_CURRENTS"},"data":[0,0,0,0.2224,0.2227,0.2386,0.2387,0.2507,0.2507,0,0,0,0,0,0,0,0,0,0,0,0.2186,0.2187,0.2224,0.2227,0.2386,0.2387,0.2506,0.2507,0,0,0,0,0,0,0,0,0,0,0,0.2185,0.2187,0.2188,0.2228,0.2386,0.2387,0.2506,0.2409,0,0,0,0,0,0,0,0,0,0,0.2266,0.2222,0.2186,0.2188,0.2229,0.2385,0.2387,0.2405,0.2415,0.2408,0,0.2448,0,0.2468,0.2513,0.2513,0,0,0,0.2236,0.2214,0.2271,0.2189,0.223,0.2385,0.2317,0.2412,0.2422,0.2421,0.245,0.2454,0.247,0.2513,0.2514,0.2615,0.2615,0,0,0.2227,0.2197,0.2264,0.2278,0.2289,0.2311,0.2321,0.2419,0.2427,0.245,0.2457,0.2472,0.2514,0.2514,0.2614,0.2615,0,0,0,0.2196,0.219,0.2247,0.2273,0.2302,0.2316,0.2327,0.2423,0.2447,0.2459,0.2474,0.2514,0.2515,0.2614,0.2615,0.2719,0,0,0,0.2191,0.2172,0.2243,0.2224,0.2301,0.237,0.2328,0.2441,0.2452,0.2473,0.2514,0.2516,0.2613,0.2614,0.2715,0.2804,0,0,0,0.2175,0.2169,0.2197,0.2222,0.2287,0.237,0.24,0.2445,0.246,0.2513,0.2516,0.2613,0.2614,0.2711,0.2796,0.2903,0,0,0,0.2125,0.2193,0.2197,0.2274,0.2286,0.2387,0.2399,0.2477,0.2526,0.2515,0.2613,0.2615,0.271,0.2791,0.2897,0.2789,0.2807,0,0,0.2187,0.22,0.2247,0.2255,0.234,0.2365,0.2467,0.2538,0.2538,0.2575,0.2579,0.2716,0.2796,0.2901,0.2858,0.2874,0,0,0,0.225,0.2269,0.2303,0.2348,0.2417,0.2502,0.254,0.2582,0.2665,0.2572,0.2711,0.2759,0.2822,0.2744,0.2757,0.262,0.262,0.262,0.262,0.2248,0.229,0.2356,0.2414,0.2477,0.2586,0.269,0.2747,0.2709,0.2764,0.2838,0.2988,0.2902,0.2911,0.2807,0.2808,0.2808,0.2809,0.2809,0.2289,0.2329,0.2375,0.2457,0.2553,0.2638,0.2812,0.2858,0.3022,0.2935,0.299,0.285,0.2931,0.2817,0.2815,0.2814,0.2813,0.2813,0.2812,0.2244,0.2285,0.2333,0.2436,0.257,0.2704,0.2916,0.3051,0.3129,0.3232,0.3136,0.3131,0.3089,0.3245,0.3246,0.3247,0.3247,0.3248,0.3249,0.2207,0.2261,0.2331,0.2433,0.2529,0.2713,0.2998,0.3158,0.3288,0.328,0.3278,0.3136,0.3122,0.3115,0.3262,0.326,0.3258,0.3257,0.3256,0.2237,0.224,0.2315,0.2401,0.2598,0.2694,0.2959,0.3174,0.336,0.3396,0.3304,0.3298,0.327,0.3255,0.3251,0.3426,0.3426,0.3426,0.3426,0.2259,0.2261,0.2353,0.2445,0.2581,0.2704,0.2754,0.2823,0.3044,0.3052,0.3067,0.2886,0.2889,0.2828,0.2823,0.2804,0.2864,0.2862,0.2861,0.2338,0.2324,0.2375,0.2401,0.2549,0.2646,0.25,0.2306,0.2505,0.2829,0.2874,0.3406,0.3174,0.3165,0.3092,0.3077,0.3055,0,0]},{"header":{"parameterUnit":"m.s-1","parameterCategory":2,"la1":30.2992,"la2":30.254,"lo1":-89.0895,"lo2":-89.0443,"dy":0.0025,"dx":0.0025,"nx":19,"ny":19,"refTime":"2026-05-21T03:00:00:Z","depth":"2","parameterNumber":3,"parameterNumberName":"V-component_of_CURRENTS"},"data":[0,0,0,-0.0108,-0.0109,-0.0174,-0.0174,-0.0295,-0.0296,0,0,0,0,0,0,0,0,0,0,0,-0.0086,-0.0086,-0.0108,-0.0109,-0.0174,-0.0174,-0.0295,-0.0296,0,0,0,0,0,0,0,0,0,0,0,-0.0086,-0.0086,-0.0086,-0.0109,-0.0174,-0.0174,-0.0295,-0.024,0,0,0,0,0,0,0,0,0,0,-0.0174,-0.0139,-0.0086,-0.0086,-0.0109,-0.0174,-0.0174,-0.0237,-0.0243,-0.0272,0,-0.0273,0,-0.0282,-0.0304,-0.0304,0,0,0,-0.0123,-0.0134,-0.0152,-0.0086,-0.011,-0.0173,-0.0149,-0.024,-0.0248,-0.0281,-0.0274,-0.0279,-0.0284,-0.0305,-0.0305,-0.0351,-0.0351,0,0,-0.012,-0.0102,-0.0147,-0.0156,-0.0115,-0.0146,-0.015,-0.0244,-0.0248,-0.0275,-0.0282,-0.0286,-0.0305,-0.0306,-0.0352,-0.0351,0,0,0,-0.01,-0.0099,-0.0115,-0.0151,-0.0157,-0.0148,-0.0153,-0.0244,-0.0248,-0.0283,-0.0288,-0.0306,-0.0308,-0.0352,-0.0351,-0.0195,0,0,0,-0.0098,-0.0087,-0.0113,-0.0104,-0.0155,-0.0195,-0.0149,-0.0242,-0.0253,-0.0287,-0.0306,-0.0309,-0.0352,-0.0352,-0.02,-0.006,0,0,0,-0.0085,-0.0086,-0.0089,-0.0103,-0.0124,-0.0193,-0.0204,-0.0245,-0.0255,-0.0304,-0.0309,-0.0353,-0.0352,-0.0204,-0.0071,0.0019,0,0,0,-0.0071,-0.0063,-0.0089,-0.0086,-0.0123,-0.0142,-0.0204,-0.0237,-0.0273,-0.0307,-0.0352,-0.0352,-0.0206,-0.0078,0.0013,-0.011,-0.0088,0,0,-0.0051,-0.006,-0.006,-0.0084,-0.0075,-0.0135,-0.0119,-0.0198,-0.027,-0.0328,-0.0329,-0.0198,-0.0072,0.0018,-0.0061,-0.0041,0,0,0,-0.0048,-0.0037,-0.0044,-0.0044,-0.0073,-0.0048,-0.0137,-0.0155,-0.019,-0.0285,-0.0225,-0.0149,-0.0098,-0.0189,-0.0172,-0.0347,-0.0348,-0.0348,-0.0348,0.0018,0.0003,0.0035,0.0025,0.002,-0.0002,0.0024,-0.0016,-0.0131,-0.0116,-0.0045,0.011,0.0011,0.0023,-0.0111,-0.011,-0.011,-0.0109,-0.0109,0.0094,0.0137,0.0128,0.0162,0.0178,0.0201,0.0198,0.016,0.0206,0.0079,0.0118,-0.0047,0.005,-0.0097,-0.0099,-0.0101,-0.0102,-0.0103,-0.0104,0.0164,0.0199,0.0215,0.0295,0.0388,0.0387,0.053,0.0517,0.0398,0.0455,0.0302,0.0296,0.0253,0.0443,0.0444,0.0445,0.0446,0.0447,0.0448,0.0266,0.0286,0.0382,0.0457,0.0552,0.0678,0.0769,0.0804,0.0695,0.0516,0.0512,0.0297,0.0279,0.0284,0.0463,0.0461,0.0459,0.0457,0.0456,0.0408,0.0417,0.053,0.0631,0.0818,0.0905,0.0984,0.089,0.0896,0.0781,0.0519,0.0512,0.0463,0.0443,0.045,0.0663,0.0663,0.0663,0.0663,0.0526,0.0529,0.0671,0.0806,0.0954,0.1011,0.0992,0.0942,0.0777,0.0649,0.065,0.0473,0.0463,0.0403,0.0385,0.0385,0.0584,0.0584,0.0584,0.0664,0.0652,0.0747,0.0805,0.0985,0.1014,0.0952,0.0946,0.0729,0.0589,0.0718,0.0642,0.0371,0.036,0.0249,0.0228,0.0221,0,0]}],[{"header":{"parameterUnit":"m.s-1","parameterCategory":2,"la1":30.2992,"la2":30.254,"lo1":-89.0895,"lo2":-89.0443,"dy":0.0025,"dx":0.0025,"nx":19,"ny":19,"refTime":"2026-05-21T03:00:00:Z","depth":"4","parameterNumber":2,"parameterNumberName":"U-component_of_CURRENTS"},"data":[0,0,0,0.1209,0.1211,0.1326,0.1327,0.1463,0.1464,0,0,0,0,0,0,0,0,0,0,0,0.1176,0.1177,0.1209,0.1211,0.1326,0.1327,0.1463,0.1464,0,0,0,0,0,0,0,0,0,0,0,0.1176,0.1177,0.1178,0.1211,0.1326,0.1327,0.1463,0.1382,0,0,0,0,0,0,0,0,0,0,0.1272,0.1244,0.1177,0.1178,0.1212,0.1326,0.1327,0.1378,0.1387,0.1404,0,0.1423,0,0.1439,0.1472,0.1473,0,0,0,0.1223,0.1237,0.126,0.1178,0.1213,0.1325,0.1278,0.1383,0.1393,0.1416,0.1425,0.143,0.1441,0.1473,0.1474,0.1653,0.1654,0,0,0.1217,0.1206,0.1253,0.1266,0.1244,0.1274,0.1281,0.1389,0.1404,0.1425,0.1433,0.1443,0.1474,0.1475,0.1652,0.1654,0,0,0,0.119,0.1202,0.1223,0.126,0.1278,0.1277,0.1285,0.14,0.1405,0.1435,0.1445,0.1474,0.1476,0.1651,0.1653,0.1768,0,0,0,0.1187,0.1185,0.122,0.1216,0.1276,0.1342,0.1293,0.1398,0.141,0.1444,0.1475,0.1477,0.165,0.1652,0.1763,0.1724,0,0,0,0.1171,0.1183,0.1195,0.1215,0.1258,0.1341,0.1354,0.1401,0.1416,0.1473,0.1477,0.1649,0.1652,0.1757,0.1718,0.1791,0,0,0,0.1157,0.1148,0.1195,0.1202,0.1256,0.1326,0.1353,0.1406,0.1452,0.1475,0.165,0.1653,0.1756,0.1714,0.1787,0.151,0,0,0,0.1124,0.1144,0.1147,0.1191,0.1242,0.1311,0.1433,0.1495,0.1506,0.1612,0.1617,0.1765,0.1718,0.179,0.1667,0,0,0,0,0.1123,0.1142,0.1153,0.1216,0.1273,0.14,0.1489,0.1561,0.169,0.1545,0.1785,0.175,0.1793,0.1622,0.1665,0.1665,0.1665,0.1664,0.1664,0.1103,0.1148,0.1187,0.127,0.1349,0.1494,0.1595,0.1726,0.175,0.1839,0.1865,0.201,0.1839,0.1932,0.1933,0.1934,0.1934,0.1935,0.1935,0.1099,0.1134,0.1256,0.1319,0.1472,0.1623,0.1791,0.185,0.2013,0.1997,0.2038,0.1779,0.1947,0.1944,0.1943,0.1941,0.194,0.194,0.1939,0.1054,0.1091,0.1176,0.1355,0.1538,0.1704,0.184,0.1969,0.2063,0.2114,0.1952,0.2067,0.2034,0.2177,0.2178,0.2178,0.2178,0.2178,0.2178,0.1006,0.1089,0.1187,0.1389,0.1486,0.165,0.1864,0.1934,0.2061,0.1985,0.2143,0.209,0.2082,0.2047,0.2182,0.2181,0.2181,0.218,0.218,0.0933,0.1049,0.1116,0.121,0.1408,0.1498,0.1724,0.1834,0.1898,0.1887,0.1933,0.1944,0.1857,0.1854,0.1807,0.1877,0.1873,0.187,0,0.0906,0.0972,0.1055,0.1108,0.1183,0.1364,0.139,0.1525,0.1676,0.1614,0.187,0.1915,0.1923,0.1817,0.181,0.1749,0,0,0,0.0888,0.0915,0.0902,0.1003,0.1058,0.1184,0.1381,0.1391,0.1648,0.1665,0.1792,0.1813,0.2016,0.2192,0.2084,0.2074,0.201,0,0]},{"header":{"parameterUnit":"m.s-1","parameterCategory":2,"la1":30.2992,"la2":30.254,"lo1":-89.0895,"lo2":-89.0443,"dy":0.0025,"dx":0.0025,"nx":19,"ny":19,"refTime":"2026-05-21T03:00:00:Z","depth":"4","parameterNumber":3,"parameterNumberName":"V-component_of_CURRENTS"},"data":[0,0,0,0.0028,0.0028,0.0011,0.0011,-0.0044,-0.0044,0,0,0,0,0,0,0,0,0,0,0,0.0036,0.0036,0.0028,0.0028,0.0011,0.0011,-0.0044,-0.0044,0,0,0,0,0,0,0,0,0,0,0,0.0036,0.0036,0.0036,0.0028,0.0011,0.0011,-0.0044,-0.0025,0,0,0,0,0,0,0,0,0,0,-0.0005,0.0009,0.0036,0.0036,0.0027,0.0011,0.0011,-0.0023,-0.0026,-0.0043,0,-0.0037,0,-0.0041,-0.0048,-0.0048,0,0,0,0.002,0.0011,0.0009,0.0036,0.0027,0.0011,0.0016,-0.0025,-0.0027,-0.0047,-0.0038,-0.004,-0.0041,-0.0048,-0.0049,-0.0041,-0.004,0,0,0.0021,0.0027,0.0011,0.0008,0.0033,0.0017,0.0016,-0.0026,-0.0027,-0.0038,-0.0041,-0.0042,-0.0049,-0.0049,-0.0041,-0.0041,0,0,0,0.0029,0.0028,0.0027,0.001,0.001,0.0016,0.0015,-0.0025,-0.0024,-0.0042,-0.0043,-0.0049,-0.005,-0.0042,-0.0041,-0.0005,0,0,0,0.0029,0.0033,0.0028,0.003,0.0011,-0.0003,0.0017,-0.0021,-0.0026,-0.0043,-0.0049,-0.005,-0.0042,-0.0041,-0.0007,-0.0023,0,0,0,0.0035,0.0033,0.0035,0.0031,0.0027,-0.0003,-0.0004,-0.0022,-0.0027,-0.0048,-0.005,-0.0043,-0.0042,-0.0009,-0.0025,-0.0079,0,0,0,0.0035,0.0087,0.0036,0.0106,0.0027,0.0075,-0.0004,0.0025,0.0021,-0.0049,-0.0042,-0.0041,-0.0009,-0.0027,-0.0079,0.0033,0,0,0,0.0112,0.0096,0.0146,0.0101,0.0168,0.0076,0.0112,0.0068,0.0024,-0.0034,-0.0034,-0.0006,-0.0026,-0.0079,0.0102,0,0,0,0,0.0181,0.0204,0.0227,0.0243,0.0246,0.0187,0.0146,0.0101,0.0046,0.0025,0.0008,-0.0006,-0.0041,0.0026,-0.0035,-0.0036,-0.0036,-0.0036,-0.0036,0.0248,0.0267,0.0324,0.0328,0.0332,0.0267,0.0214,0.0129,0.0111,0.009,0.0036,0.0034,0.0113,0.0066,0.0066,0.0066,0.0066,0.0067,0.0067,0.0339,0.0349,0.0351,0.0409,0.034,0.0331,0.0223,0.018,0.0074,0.0074,0.0039,0.0078,0.0071,0.007,0.0069,0.0069,0.0068,0.0068,0.0068,0.0366,0.0353,0.0402,0.0406,0.037,0.0316,0.0247,0.0162,0.0086,0.005,0.0083,0.0027,0.0005,0.0032,0.0032,0.0032,0.0031,0.0031,0.0031,0.0319,0.036,0.0355,0.0376,0.0354,0.0318,0.0231,0.0186,0.0102,0.0107,0.0045,0.002,0.0021,0.0002,0.0027,0.0028,0.0028,0.0029,0.0029,0.0254,0.0266,0.0289,0.0284,0.0282,0.0291,0.0231,0.0219,0.015,0.0124,0.0119,0.0115,0.0089,0.0087,0.0068,0.0114,0.0115,0.0117,0,0.0145,0.0173,0.0195,0.0228,0.0257,0.0275,0.0293,0.0275,0.0191,0.0201,0.0103,0.0096,0.0095,0.0065,0.0065,0.0045,0,0,0,0.0005,0.0075,0.0089,0.0221,0.0277,0.032,0.0317,0.0326,0.0209,0.0233,0.0153,0.0144,0.0121,0.0015,-0.0037,-0.0035,-0.0071,0,0]}]]